Hollywood, FL

9:55 PM EDT on October 13, 2019 (GMT -0400)
North Perry

Weather History for KHWO - August, 2019

Change the Weather History Date:

Saturday, August 3, 2019

  Actual Average (KFLL) Record (KFLL)
Temperature  
Mean Temperature 84 °F 85 °F  
Max Temperature 93 °F 91 °F 95 °F (1954)
Min Temperature 78 °F 79 °F 67 °F (1965)
Degree Days  
Heating Degree Days 0 0  
Month to date heating degree days 0  
Since 1 June heating degree days 0  
Since 1 July heating degree days 0  
Cooling Degree Days 20 20  
Month to date cooling degree days 60  
Year to date cooling degree days 2619  
Since 1 June cooling degree days 1201  
Growing Degree Days 34 (Base 50)    
Moisture  
Dew Point 74 °F    
Average Humidity 79    
Maximum Humidity 90    
Minimum Humidity 58    
Precipitation  
Precipitation 0.22 in 0.22 in 2.74 in (1995)
Month to date precipitation 0.64  
Year to date precipitation 34.27  
Snow  
Snow 0.00 in - - ()
Month to date snowfall  
Since 1 June snowfall  
Since 1 July snowfall  
Snow Depth -    
Sea Level Pressure  
Sea Level Pressure 29.98 in    
Wind  
Wind Speed 5 mph (SSE)    
Max Wind Speed 15 mph    
Max Gust Speed 22 mph    
Visibility 10 miles    
Events Rain , Thunderstorm    
T = Trace of Precipitation, MM = Missing Value Source: NWS Daily Summary

Daily Weather History Graph

Daily Weather History Graph

Search for Another Location

Airport or City:

Astronomy

Aug. 03, 2019 Rise Set
Actual Time 6:47 AM EDT 8:06 PM EDT
Civil Twilight 6:23 AM EDT 8:30 PM EDT
Nautical Twilight 5:53 AM EDT 9:00 PM EDT
Astronomical Twilight 5:23 AM EDT 9:30 PM EDT
Moon 9:26 AM EDT (8/3) 10:27 PM EDT (8/3)
Length of Visible Light 14h 07m
Length of Day
13h 18m
Waxing Crescent, 10% of the Moon is Illuminated
Aug 3
Waxing Crescent
Aug 7
First Quarter
Aug 15
Full
Aug 23
Last Quarter
Aug 30
New

Hourly Weather History & Observations

Time (EDT) Temp. Heat Index Dew Point Humidity Pressure Visibility Wind Dir Wind Speed Gust Speed Precip Events Conditions
12:53 AM 80.1 °F 84.5 °F 73.9 °F 81% 29.97 in 10.0 mi ESE 3.5 mph - N/A   Clear
1:53 AM 80.1 °F 85.1 °F 75.0 °F 85% 29.97 in 10.0 mi Calm Calm - N/A   Clear
2:53 AM 81.0 °F 86.7 °F 75.0 °F 82% 29.95 in 10.0 mi SSE 3.5 mph - N/A   Clear
3:53 AM 79.0 °F - 73.9 °F 84% 29.96 in 10.0 mi SSE 8.1 mph - 0.01 in   Mostly Cloudy
4:53 AM 78.1 °F - 73.0 °F 84% 29.94 in 10.0 mi SSE 8.1 mph - 0.00 in   Partly Cloudy
5:53 AM 78.1 °F - 73.9 °F 87% 29.95 in 10.0 mi SSE 3.5 mph - N/A   Clear
6:53 AM 78.1 °F - 73.9 °F 87% 29.95 in 10.0 mi ESE 4.6 mph - N/A   Clear
7:53 AM 80.1 °F 85.1 °F 75.0 °F 85% 29.96 in 10.0 mi Calm Calm - N/A   Clear
8:53 AM 82.9 °F 90.8 °F 75.9 °F 79% 29.98 in 10.0 mi Variable 3.5 mph - N/A   Clear
9:53 AM 87.1 °F 97.3 °F 75.9 °F 69% 29.99 in 10.0 mi SW 11.5 mph - N/A   Clear
10:53 AM 89.1 °F 99.1 °F 75.0 °F 63% 29.99 in 10.0 mi SSW 10.4 mph - N/A   Partly Cloudy
11:53 AM 86.0 °F 93.0 °F 73.0 °F 65% 29.99 in 10.0 mi SSW 8.1 mph - 0.00 in Rain Light Rain
12:00 PM 86.0 °F 93.8 °F 73.9 °F 67% 29.99 in 10.0 mi SSW 8.1 mph - 0.00 in Rain , Thunderstorm Light Rain
12:15 PM 87.1 °F 97.3 °F 75.9 °F 69% 29.99 in 10.0 mi SW 5.8 mph - 0.00 in Rain Light Rain
12:53 PM 90.0 °F 99.0 °F 73.9 °F 59% 29.98 in 10.0 mi SSW 10.4 mph - 0.00 in   Clear
1:19 PM 91.9 °F 103.2 °F 75.0 °F 58% 29.97 in 10.0 mi WSW 12.7 mph 18.4 mph N/A Thunderstorm Partly Cloudy
1:39 PM 84.0 °F 89.6 °F 72.0 °F 67% 29.98 in 10.0 mi South 12.7 mph 21.9 mph 0.00 in Rain , Thunderstorm Light Thunderstorms and Rain
1:53 PM 82.9 °F 88.8 °F 73.0 °F 72% 29.97 in 10.0 mi SSE 6.9 mph - 0.04 in Rain , Thunderstorm Light Rain
2:29 PM 82.9 °F 89.4 °F 73.9 °F 74% 29.97 in 10.0 mi SSE 9.2 mph - 0.00 in Rain Light Rain
2:53 PM 84.9 °F 94.1 °F 75.9 °F 74% 29.96 in 10.0 mi SSE 6.9 mph - 0.00 in Rain Light Rain
3:00 PM 86.0 °F 96.9 °F 77.0 °F 74% 29.95 in 10.0 mi SSE 5.8 mph - 0.00 in Thunderstorm Thunderstorm
3:21 PM 86.0 °F 96.0 °F 75.9 °F 72% 29.95 in 10.0 mi South 11.5 mph - 0.00 in Thunderstorm Clear
3:28 PM 84.0 °F 91.9 °F 75.0 °F 74% 29.94 in 10.0 mi SSE 15.0 mph 19.6 mph 0.00 in Thunderstorm Thunderstorm
3:53 PM 79.0 °F - 73.9 °F 84% 29.96 in 10.0 mi SSE 10.4 mph - 0.01 in Rain , Thunderstorm Thunderstorms and Rain
4:04 PM 78.1 °F - 73.9 °F 87% 29.96 in 10.0 mi ESE 12.7 mph - 0.02 in Rain , Thunderstorm Rain
4:26 PM 78.1 °F - 73.9 °F 87% 29.97 in 10.0 mi Calm Calm - 0.03 in Rain Light Rain
4:40 PM 78.1 °F - 73.0 °F 84% 29.98 in 10.0 mi NNE 3.5 mph - 0.03 in Rain , Thunderstorm Light Rain
4:53 PM 78.1 °F - 73.9 °F 87% 29.99 in 10.0 mi NNW 3.5 mph - 0.04 in Rain , Thunderstorm Light Rain
5:11 PM 79.0 °F - 73.9 °F 84% 29.98 in 10.0 mi NW 4.6 mph - 0.02 in Rain Light Rain
5:45 PM 79.0 °F - 73.9 °F 84% 29.98 in 10.0 mi NNE 3.5 mph - 0.04 in Rain , Thunderstorm Light Rain
5:53 PM 79.0 °F - 73.9 °F 84% 29.98 in 10.0 mi NNW 4.6 mph - 0.04 in Rain , Thunderstorm Light Rain
6:08 PM 79.0 °F - 75.0 °F 88% 29.98 in 10.0 mi Calm Calm - 0.00 in Rain Light Rain
6:53 PM 79.0 °F - 75.0 °F 88% 29.99 in 10.0 mi Calm Calm - 0.01 in   Partly Cloudy
7:53 PM 79.0 °F - 75.0 °F 88% 29.99 in 10.0 mi Calm Calm - 0.07 in Rain Light Rain
8:53 PM 79.0 °F - 75.9 °F 90% 30.01 in 10.0 mi Calm Calm - 0.00 in   Clear
9:53 PM 79.0 °F - 75.0 °F 88% 30.02 in 10.0 mi SSE 3.5 mph - N/A   Clear
10:53 PM 78.1 °F - 75.0 °F 90% 30.02 in 10.0 mi ESE 3.5 mph - N/A   Clear
11:53 PM 78.1 °F - 75.0 °F 90% 30.03 in 10.0 mi ESE 4.6 mph - N/A   Clear